Location: アルンシュタイン
(50.0000°N, 10.0000°E)
Time: 06:20:04
(UTC+01:00)

Oscar 19 - Visible Passes

Search period start: 27 January 2022 00:00
Search period end: 06 February 2022 00:00
Orbit: 774 x 789 km, 98.8° (Epoch: 26 January)

Date Brightness Start Highest point End Pass type
(mag) Time Alt. Az. Time Alt. Az. Time Alt. Az.
27 Jan 13.1 04:39:47 10° N 04:39:57 11° N 04:39:57 11° N visible
28 Jan 13.3 04:07:35 10° N 04:07:40 10° N 04:07:40 10° N visible
29 Jan 13.0 05:15:41 10° N 05:15:57 11° N 05:15:57 11° N visible
30 Jan 13.0 04:43:12 10° N 04:43:40 12° N 04:43:40 12° N visible
31 Jan 13.2 04:10:58 10° N 04:11:23 12° N 04:11:23 12° N visible
01 Feb 13.4 03:38:57 10° NNE 03:39:06 11° NNE 03:39:06 11° NNE visible
01 Feb 12.9 05:19:07 10° N 05:19:39 12° NNW 05:19:39 12° NNW visible
02 Feb 12.9 04:46:36 10° N 04:47:22 14° N 04:47:22 14° N visible
03 Feb 13.0 04:14:22 10° N 04:15:06 14° N 04:15:06 14° N visible
04 Feb 13.3 03:42:19 10° NNE 03:42:49 13° NNE 03:42:49 13° NNE visible
04 Feb 12.7 05:22:34 10° N 05:23:23 13° NNW 05:23:23 13° NNW visible
05 Feb 13.6 03:10:31 10° NNE 03:10:33 10° NNE 03:10:33 10° NNE visible
05 Feb 12.7 04:50:01 10° N 04:51:06 16° N 04:51:06 16° N visible
